• In Uzbekistan
  • List of Countries
  • For 7 days
  • Water Temperature
  • Satellite Maps
  • Weather Map
  • Weather Widgets
  • user-avatar
    Login

    Hourly Weather Tamerza

    Today, 15 October, Monday

    Time Temperature Precipitation Wind Pressure Humidity
    00:00 +24°C° 0 mm 2 mps 728 mmHg 45%
    01:00 +24°C° 0 mm 2 mps 728 mmHg 47%
    02:00 +23°C° 0 mm 2 mps 728 mmHg 48%
    03:00 +23°C° 0 mm 2 mps 728 mmHg 49%
    04:00 +23°C° 0 mm 2 mps 728 mmHg 49%
    05:00 +23°C° 0 mm 2 mps 728 mmHg 49%
    06:00 +23°C° 0 mm 2 mps 728 mmHg 49%
    07:00 +23°C° 0 mm 2 mps 728 mmHg 50%
    08:00 +24°C° 0 mm 3 mps 728 mmHg 45%
    09:00 +25°C° 0 mm 4 mps 728 mmHg 41%
    10:00 +26°C° 0 mm 4 mps 729 mmHg 36%
    11:00 +27°C° 0 mm 5 mps 728 mmHg 34%
    12:00 +28°C° 0 mm 5 mps 728 mmHg 32%
    13:00 +29°C° 0 mm 6 mps 728 mmHg 30%
    14:00 +29°C° 0 mm 5 mps 728 mmHg 30%
    15:00 +30°C° 0 mm 5 mps 728 mmHg 29%
    16:00 +30°C° 0 mm 5 mps 728 mmHg 29%
    17:00 +29°C° 0 mm 4 mps 728 mmHg 31%
    18:00 +28°C° 0 mm 3 mps 728 mmHg 33%
    19:00 +28°C° 0 mm 2 mps 728 mmHg 36%
    20:00 +27°C° 0.5 mm 2 mps 728 mmHg 38%
    21:00 +27°C° 0.5 mm 2 mps 728 mmHg 41%
    22:00 +26°C° 0.5 mm 1 mps 729 mmHg 43%
    23:00 +26°C° 0.3 mm 2 mps 728 mmHg 44%

    Tomorrow, 16 October, Tuesday

    Time Temperature Precipitation Wind Pressure Humidity
    00:00 +26°C° 0.3 mm 2 mps 728 mmHg 45%
    01:00 +25°C° 0.3 mm 2 mps 728 mmHg 46%
    02:00 +25°C° 0.1 mm 2 mps 728 mmHg 46%
    03:00 +25°C° 0.1 mm 2 mps 728 mmHg 46%
    04:00 +24°C° 0.1 mm 3 mps 727 mmHg 46%
    05:00 +24°C° 0 mm 2 mps 728 mmHg 46%
    06:00 +24°C° 0 mm 2 mps 728 mmHg 46%
    07:00 +24°C° 0 mm 2 mps 728 mmHg 46%
    08:00 +25°C° 0 mm 2 mps 728 mmHg 43%
    09:00 +26°C° 0 mm 2 mps 729 mmHg 40%
    10:00 +27°C° 0 mm 2 mps 729 mmHg 37%
    11:00 +27°C° 0.1 mm 2 mps 729 mmHg 36%
    12:00 +28°C° 0.1 mm 2 mps 729 mmHg 35%
    13:00 +28°C° 0.1 mm 2 mps 729 mmHg 34%
    14:00 +28°C° 0.1 mm 3 mps 728 mmHg 34%
    15:00 +28°C° 0.1 mm 3 mps 728 mmHg 35%
    16:00 +28°C° 0.1 mm 3 mps 727 mmHg 35%
    17:00 +28°C° 0 mm 4 mps 727 mmHg 36%
    18:00 +27°C° 0 mm 4 mps 727 mmHg 38%
    19:00 +27°C° 0 mm 5 mps 727 mmHg 39%
    20:00 +26°C° 0 mm 5 mps 727 mmHg 43%
    21:00 +26°C° 0 mm 6 mps 727 mmHg 46%
    22:00 +24°C° 0 mm 6 mps 727 mmHg 50%
    23:00 +24°C° 0 mm 6 mps 727 mmHg 54%

    Day after tomorrow, 17 October, Wednesday

    Time Temperature Precipitation Wind Pressure Humidity
    00:00 +24°C° 0 mm 7 mps 727 mmHg 59%
    01:00 +23°C° 0 mm 7 mps 726 mmHg 64%
    02:00 +23°C° 0 mm 7 mps 726 mmHg 67%
    03:00 +23°C° 0 mm 7 mps 725 mmHg 70%
    04:00 +23°C° 0 mm 6 mps 725 mmHg 73%
    05:00 +23°C° 0.2 mm 6 mps 725 mmHg 72%
    06:00 +23°C° 0.2 mm 6 mps 724 mmHg 71%
    07:00 +23°C° 0.2 mm 6 mps 724 mmHg 70%
    08:00 +23°C° 0 mm 8 mps 724 mmHg 67%
    09:00 +24°C° 0 mm 9 mps 724 mmHg 63%
    10:00 +26°C° 0 mm 10 mps 724 mmHg 60%
    11:00 +27°C° 0.2 mm 11 mps 723 mmHg 57%
    12:00 +28°C° 0.2 mm 11 mps 723 mmHg 54%
    13:00 +28°C° 0.2 mm 12 mps 722 mmHg 51%
    14:00 +29°C° 0.6 mm 11 mps 722 mmHg 50%
    15:00 +29°C° 0.6 mm 11 mps 721 mmHg 50%
    16:00 +29°C° 0.6 mm 11 mps 721 mmHg 49%
    17:00 +28°C° 0.4 mm 11 mps 721 mmHg 53%
    18:00 +27°C° 0.4 mm 11 mps 721 mmHg 56%
    19:00 +26°C° 0.4 mm 11 mps 721 mmHg 60%
    20:00 +24°C° 0.3 mm 10 mps 721 mmHg 61%
    21:00 +24°C° 0.3 mm 9 mps 721 mmHg 62%
    22:00 +23°C° 0.3 mm 8 mps 721 mmHg 63%
    23:00 +23°C° 0.3 mm 7 mps 721 mmHg 65%

    18 October, Thursday

    Time Temperature Precipitation Wind Pressure Humidity
    00:00 +22°C° 0.3 mm 6 mps 720 mmHg 68%
    01:00 +22°C° 0.3 mm 5 mps 720 mmHg 71%
    02:00 +21°C° 0.2 mm 4 mps 720 mmHg 72%
    03:00 +21°C° 0.2 mm 4 mps 719 mmHg 73%
    04:00 +20°C° 0.2 mm 4 mps 719 mmHg 74%
    05:00 +20°C° 0.6 mm 3 mps 719 mmHg 74%
    06:00 +20°C° 0.6 mm 3 mps 719 mmHg 74%
    07:00 +20°C° 0.6 mm 3 mps 719 mmHg 74%
    08:00 +21°C° 0.2 mm 3 mps 720 mmHg 70%
    09:00 +21°C° 0.2 mm 3 mps 720 mmHg 65%
    10:00 +22°C° 0.2 mm 3 mps 721 mmHg 61%
    11:00 +24°C° 0.2 mm 3 mps 721 mmHg 57%
    12:00 +25°C° 0.2 mm 3 mps 720 mmHg 53%
    13:00 +26°C° 0.2 mm 3 mps 720 mmHg 49%
    14:00 +26°C° 0 mm 3 mps 720 mmHg 47%
    15:00 +26°C° 0 mm 4 mps 720 mmHg 45%
    16:00 +27°C° 0 mm 4 mps 720 mmHg 43%
    17:00 +26°C° 0 mm 4 mps 721 mmHg 45%
    18:00 +26°C° 0 mm 4 mps 721 mmHg 46%
    19:00 +25°C° 0 mm 4 mps 722 mmHg 48%
    20:00 +25°C° 0 mm 3 mps 722 mmHg 50%
    21:00 +24°C° 0 mm 2 mps 723 mmHg 52%
    22:00 +24°C° 0 mm 1 mps 723 mmHg 54%
    23:00 +23°C° 0 mm 1 mps 723 mmHg 56%

    19 October, Friday

    Time Temperature Precipitation Wind Pressure Humidity
    00:00 +23°C° 0 mm 1 mps 723 mmHg 57%
    01:00 +23°C° 0 mm 1 mps 723 mmHg 59%
    02:00 +22°C° 0 mm 1 mps 724 mmHg 60%
    03:00 +22°C° 0 mm 1 mps 724 mmHg 61%
    04:00 +22°C° 0 mm 1 mps 724 mmHg 62%
    05:00 +19°C° 0 mm 0 mps 724 mmHg 62%
    06:00 +19°C° 0 mm 0 mps 725 mmHg 63%
    07:00 +19°C° 0 mm 0 mps 725 mmHg 64%
    08:00 +20°C° 0 mm 0 mps 726 mmHg 58%
    09:00 +22°C° 0 mm 0 mps 726 mmHg 52%
    10:00 +23°C° 0 mm 0 mps 727 mmHg 46%
    11:00 +26°C° 0 mm 1 mps 727 mmHg 43%
    12:00 +27°C° 0 mm 1 mps 727 mmHg 39%
    13:00 +27°C° 0 mm 2 mps 727 mmHg 36%
    14:00 +28°C° 0 mm 2 mps 727 mmHg 34%
    15:00 +28°C° 0 mm 2 mps 727 mmHg 33%
    16:00 +28°C° 0 mm 2 mps 727 mmHg 31%
    17:00 +28°C° 0 mm 2 mps 728 mmHg 34%
    18:00 +27°C° 0 mm 1 mps 728 mmHg 37%
    19:00 +26°C° 0 mm 1 mps 728 mmHg 40%
    20:00 +25°C° 0 mm 1 mps 729 mmHg 42%
    21:00 +25°C° 0 mm 1 mps 729 mmHg 44%
    22:00 +22°C° 0 mm 0 mps 729 mmHg 45%
    23:00 +24°C° 0 mm 1 mps 729 mmHg 45%

    20 October, Saturday

    Time Temperature Precipitation Wind Pressure Humidity
    00:00 +24°C° 0 mm 1 mps 729 mmHg 45%
    01:00 +24°C° 0 mm 1 mps 729 mmHg 45%
    02:00 +23°C° 0 mm 2 mps 729 mmHg 47%
    03:00 +23°C° 0 mm 2 mps 729 mmHg 48%
    04:00 +22°C° 0 mm 3 mps 729 mmHg 50%
    05:00 +22°C° 0 mm 3 mps 729 mmHg 56%
    06:00 +21°C° 0 mm 4 mps 730 mmHg 61%
    07:00 +21°C° 0 mm 4 mps 730 mmHg 66%
    08:00 +22°C° 0 mm 4 mps 730 mmHg 62%
    09:00 +23°C° 0 mm 5 mps 731 mmHg 57%
    10:00 +26°C° 0 mm 5 mps 731 mmHg 52%
    11:00 +26°C° 0 mm 5 mps 731 mmHg 49%
    12:00 +27°C° 0 mm 6 mps 731 mmHg 45%
    13:00 +28°C° 0 mm 6 mps 730 mmHg 41%
    14:00 +28°C° 0 mm 6 mps 730 mmHg 41%
    15:00 +29°C° 0 mm 6 mps 730 mmHg 40%
    16:00 +29°C° 0 mm 6 mps 729 mmHg 40%
    17:00 +28°C° 0 mm 6 mps 729 mmHg 44%
    18:00 +27°C° 0 mm 6 mps 729 mmHg 47%
    19:00 +26°C° 0 mm 5 mps 730 mmHg 51%
    20:00 +25°C° 0 mm 5 mps 730 mmHg 54%
    21:00 +25°C° 0 mm 5 mps 730 mmHg 57%
    22:00 +23°C° 0 mm 5 mps 730 mmHg 60%
    23:00 +23°C° 0 mm 5 mps 730 mmHg 63%
    Show more